AirNav   Pilot Hours Calculator
 
 1700 users online  

53T Cannon Field Airport
Somerset, Texas, USA

GOING TO SOMERSET?


FAA INFORMATION EFFECTIVE 11 AUGUST 2022

Location

FAA Identifier: 53T
Lat/Long: 29-12-57.8640N 098-32-58.0630W
29-12.964400N 098-32.967717W
29.2160733,-98.5494619
(estimated)
Elevation: 610 ft. / 186 m (estimated)
Variation: 07E (1985)
From city: 6 miles E of SOMERSET, TX
Time zone: UTC -5 (UTC -6 during Standard Time)
Zip code: 78264

Airport Operations

Airport use: Open to the public
Activation date: 09/1983
Control tower: no
ARTCC: HOUSTON CENTER
FSS: SAN ANGELO FLIGHT SERVICE STATION
NOTAMs facility: SJT (NOTAM-D service available)
Attendance: CONTINUOUS
FOR ARPT ATTENDANT CALL 210-842-0429.
Wind indicator: yes
Segmented circle: no

Airport Communications

CTAF/UNICOM: 123.0
WX ASOS at SSF (8 nm NE): PHONE 210-927-9391
WX AWOS-3 at PEZ (16 nm S): 118.575 (830-569-5749)
WX AWOS-3 at CVB (18 nm NW): 119.25 (830-931-0232)
WX ASOS at SAT (20 nm N): PHONE 210-805-5583

Nearby radio navigation aids

VOR radial/distance  VOR name  Freq  Var
SSFr236/(6.1)STINSON VOR108.4009E
RNDr212/22.8RANDOLPH VORTAC112.3005E
SATr182/26.1SAN ANTONIO VORTAC116.8008E

 
NDB name  Hdg/Dist  Freq  Var  ID
DEVINE070/20.935907EHHH .... .... ....

Airport Services

Airframe service: NONE
Powerplant service: NONE

Runway Information

Runway 16/34

Dimensions: 2880 x 100 ft. / 878 x 30 m
Surface: turf, in good condition
Runway edge markings: RWY OUTLINED WITH ROUND WHITE CONCRETE MARKERS.
RUNWAY 16  RUNWAY 34
Traffic pattern: leftright
Displaced threshold: 200 ft.300 ft.
Markings: NSTD
Obstructions: 4 ft. fence, 105 ft. right of centerline
RWY 16 0:1 AT DSPLCD THR DUE TO 4 FT FENCE APPROX 105 FT R OF CNTRLN.
49 ft. tree, 100 ft. left of centerline
RWY 34 0:1 AT DSPLCD THR DUE TO +4 FT FENCE 51 FT R OF CNTRLN.

Airport Ownership and Management from official FAA records

Ownership: Privately-owned
Owner: ALAMO LIAISON GROUP
2352 S LOOP 1604 W
SAN ANTONIO, TX 78264-3719
Phone 210-624-2226
Manager: RICHARD ROBERTS
2352 S LOOP 1604 W
SAN ANTONIO, TX 78264-3719
Phone 210-624-2226

Airport Operational Statistics

Aircraft based on the field: 13
Single engine airplanes: 13
    
Aircraft operations: avg 21/week *
91% local general aviation
9% transient general aviation
* for 12-month period ending 01 February 2017

Additional Remarks

WILDLIFE ON & INVOF ARPT.
+30 FT MKD PWRLINE 500 FT N OF RWY 16 END.
RWYS 16 & 34 DSPLCD THRS MKD WITH WHITE PAINTED BARRELS.
RWY 16/34 SOUTH HALF ROUGH EDGES.
RWY 16 +4 FT FENCE 105 FT R PARALLEL TO RWY; +6-10 FT TREES IN FENCE ROW 105 FT R OF CNTRLN.
RWY 34 +4 FT FENCE 51 FT RIGHT PARALLEL TO RWY.
FOR CD CTC SAN ANTONIO APCH AT 210-805-5516.

Instrument Procedures

There are no published instrument procedures at 53T.

Some nearby airports with instrument procedures:

KSSF - Stinson Municipal Airport (8 nm NE)
KSKF - Kelly Field Airport (10 nm N)
KPEZ - Pleasanton Municipal Airport (16 nm S)
KCVB - Castroville Municipal Airport (18 nm NW)
KSAT - San Antonio International Airport (20 nm N)
 
Loc | Ops | Rwys | IFR | FBO | Links
Com | Nav | Svcs | Stats | Notes
Area around 53T (Cannon Field Airport)
 
Road maps at: MapQuest Bing Google
 
Aerial photo
WARNING: Photo may not be current or correct
Aerial photo of 53T (Cannon Field Airport)
Photo taken 11-Jun-2010

Do you have a better or more recent aerial photo of Cannon Field Airport that you would like to share? If so, please send us your photo.

 
Sectional chart

 
Airport distance calculator
Flying to Cannon Field Airport? Find the distance to fly.

From to 53T

Sunrise and sunset
Times for 19-Aug-2022
 Local
(UTC-5)
 Zulu
(UTC)
Morning civil twilight06:4111:41
Sunrise07:0612:06
Sunset20:1001:10
Evening civil twilight20:3401:34

Current date and time
Zulu (UTC)  19-Aug-2022 17:03:55
Local (UTC-5)  19-Aug-2022 12:03:55
 
METAR
KSSF 
8nm NE 
191653Z VRB06KT 10SM CLR 33/20 A2991 RMK AO2 SLP113 T03280200
KSKF 
9nm N 
191655Z AUTO 16007KT 10SM CLR 33/20 A2992 RMK AO2 SLP123 T03310195 $
KPEZ 
16nm S 
191635Z AUTO 20007KT 10SM CLR 33/19 A2994 RMK AO2 T03300194
KCVB 
17nm NW 
191639Z AUTO 19005KT 7SM CLR 33/17 A2996 RMK AO2
KSAT 
20nm N 
191651Z 19008KT 10SM FEW045 FEW250 33/19 A2995 RMK AO2 SLP122 T03280194
TAF
KSSF 
8nm NE 
191120Z 1912/2012 00000KT P6SM BKN011 FM191600 12005KT P6SM SCT035 BKN250 FM191900 13006KT P6SM VCSH SCT050 BKN100 PROB30 1921/2003 4SM TSRA BR SCT020 BKN035CB FM200300 15005KT P6SM BKN080 FM200800 16006KT P6SM BKN012
KSKF 
9nm N 
191125Z 1911/2016 13005KT 9999 SCT014 BKN200 QNH2991INS TEMPO 1911/1915 BKN014 BKN200 BECMG 1915/1916 14007KT 9999 SCT035 BKN250 QNH2984INS BECMG 1919/1920 13009KT 9999 VCTS BKN050CB BKN100 OVC250 QNH2981INS TEMPO 1921/2001 VRB20G30KT 4800 TSRA SCT025 OVC050CB BECMG 2001/2002 13012KT 9999 NSW SCT040 BKN100 BKN250 QNH2988INS BECMG 2006/2007 14007KT 9999 BKN014 BKN250 QNH2992INS TX34/1920Z TN25/1912Z
KSAT 
20nm N 
191120Z 1912/2018 00000KT P6SM SCT017 BKN035 BKN250 TEMPO 1912/1916 BKN017 FM191600 13006KT P6SM SCT035 BKN250 FM191800 13006KT P6SM VCSH SCT050 BKN100 PROB30 1921/2003 4SM TSRA BR SCT020 BKN035CB FM200300 16006KT P6SM BKN080 FM200800 17007KT P6SM BKN012 FM201600 17008KT P6SM SCT035
NOTAMs
Click for the latest NOTAMs
NOTAMs are issued by the DoD/FAA and will open in a separate window not controlled by AirNav.

 

 
 

Would you like to see your business listed on this page?

 If your business provides an interesting product or service to pilots, flight crews, aircraft, or users of the Cannon Field Airport, you should consider listing it here.  To start the listing process, click on the button below
 
Add a business
 

Other Pages about Cannon Field Airport

Update a link
 
Copyright © AirNav, LLC. All rights reserved. Privacy Policy  Contact